Time,TemperatureF,DewpointF,PressureIn,WindDirection,WindDirectionDegrees,WindSpeedMPH,WindSpeedGustMPH,Humidity,HourlyPrecipIn,Conditions,Clouds,dailyrainin,SoftwareType,DateUTC
2013-08-18 00:12:00,63.7,61.0,30.25,SW,223,0.0,0.0,90,0.00,,,0.00,weatherlink.com 1.10,2013-08-18 04:12:00,
2013-08-18 00:27:00,63.6,61.0,30.25,SW,222,0.0,0.0,91,0.00,,,0.00,weatherlink.com 1.10,2013-08-18 04:27:00,
2013-08-18 00:57:00,64.0,62.0,30.24,SW,222,0.0,0.0,93,0.00,,,0.00,weatherlink.com 1.10,2013-08-18 04:57:00,
2013-08-18 01:12:00,64.4,62.0,30.24,SW,222,0.0,0.0,93,0.00,,,0.00,weatherlink.com 1.10,2013-08-18 05:12:00,
2013-08-18 01:27:00,64.3,63.0,30.23,SW,222,0.0,0.0,94,0.00,,,0.00,weatherlink.com 1.10,2013-08-18 05:27:00,
2013-08-18 01:42:00,63.7,62.0,30.23,SW,222,0.0,0.0,94,0.00,,,0.00,weatherlink.com 1.10,2013-08-18 05:42:00,
2013-08-18 01:57:00,63.5,62.0,30.23,SW,222,0.0,0.0,95,0.00,,,0.00,weatherlink.com 1.10,2013-08-18 05:57:00,
2013-08-18 02:12:00,63.1,62.0,30.23,SW,222,0.0,0.0,95,0.00,,,0.00,weatherlink.com 1.10,2013-08-18 06:12:00,
2013-08-18 02:27:00,63.1,62.0,30.23,SW,222,0.0,0.0,96,0.00,,,0.00,weatherlink.com 1.10,2013-08-18 06:27:00,
2013-08-18 02:42:00,63.4,62.0,30.23,SW,222,0.0,0.0,96,0.00,,,0.00,weatherlink.com 1.10,2013-08-18 06:42:00,
2013-08-18 02:57:00,63.4,62.0,30.23,SW,222,0.0,0.0,96,0.00,,,0.00,weatherlink.com 1.10,2013-08-18 06:57:00,
2013-08-18 03:12:00,63.1,62.0,30.23,SW,222,0.0,0.0,96,0.00,,,0.00,weatherlink.com 1.10,2013-08-18 07:12:00,
2013-08-18 03:27:00,63.0,62.0,30.23,SW,222,0.0,0.0,97,0.00,,,0.00,weatherlink.com 1.10,2013-08-18 07:27:00,
2013-08-18 03:42:00,62.9,62.0,30.23,SW,222,0.0,0.0,97,0.00,,,0.00,weatherlink.com 1.10,2013-08-18 07:42:00,
2013-08-18 03:57:00,62.7,62.0,30.22,SW,222,0.0,0.0,97,0.00,,,0.00,weatherlink.com 1.10,2013-08-18 07:57:00,
2013-08-18 04:12:00,62.6,62.0,30.22,SW,223,0.0,0.0,97,0.00,,,0.00,weatherlink.com 1.10,2013-08-18 08:12:00,
2013-08-18 04:27:00,62.1,61.0,30.23,SW,223,0.0,0.0,97,0.00,,,0.00,weatherlink.com 1.10,2013-08-18 08:27:00,
2013-08-18 04:42:00,61.9,61.0,30.23,SW,222,0.0,0.0,97,0.00,,,0.00,weatherlink.com 1.10,2013-08-18 08:42:00,
2013-08-18 04:57:00,61.6,61.0,30.23,SW,222,0.0,0.0,97,0.00,,,0.00,weatherlink.com 1.10,2013-08-18 08:57:00,
2013-08-18 05:12:00,61.7,61.0,30.23,SW,219,0.0,0.0,97,0.00,,,0.00,weatherlink.com 1.10,2013-08-18 09:12:00,
2013-08-18 05:27:00,61.6,61.0,30.23,SW,218,0.0,0.0,97,0.00,,,0.00,weatherlink.com 1.10,2013-08-18 09:27:00,
2013-08-18 05:42:00,61.3,61.0,30.23,SW,218,0.0,0.0,97,0.00,,,0.00,weatherlink.com 1.10,2013-08-18 09:42:00,
2013-08-18 05:57:00,61.3,61.0,30.23,SW,219,0.0,0.0,97,0.00,,,0.00,weatherlink.com 1.10,2013-08-18 09:57:00,
2013-08-18 06:12:00,-999.0,-99.9,30.23,North,-999,-999.0,-999.0,-999,0.00,,,0.00,weatherlink.com 1.10,2013-08-18 10:12:00,
2013-08-18 06:27:00,-999.0,-99.9,30.23,North,-999,-999.0,-999.0,-999,0.00,,,0.00,weatherlink.com 1.10,2013-08-18 10:27:00,
2013-08-18 06:42:00,-999.0,-99.9,30.23,North,-999,-999.0,-999.0,-999,0.00,,,0.00,weatherlink.com 1.10,2013-08-18 10:42:00,
2013-08-18 06:58:00,-999.0,-99.9,30.24,North,-999,-999.0,-999.0,-999,0.00,,,0.00,weatherlink.com 1.10,2013-08-18 10:58:00,
2013-08-18 07:13:00,-999.0,-99.9,30.24,North,-999,-999.0,-999.0,-999,0.00,,,0.00,weatherlink.com 1.10,2013-08-18 11:13:00,
2013-08-18 07:28:00,-999.0,-99.9,30.24,North,-999,-999.0,-999.0,-999,0.00,,,0.00,weatherlink.com 1.10,2013-08-18 11:28:00,
2013-08-18 07:43:00,-999.0,-99.9,30.23,North,-999,-999.0,-999.0,-999,0.00,,,0.00,weatherlink.com 1.10,2013-08-18 11:43:00,
2013-08-18 07:58:00,-999.0,-99.9,30.24,North,-999,-999.0,-999.0,-999,0.00,,,0.00,weatherlink.com 1.10,2013-08-18 11:58:00,
2013-08-18 08:13:00,-999.0,-99.9,30.24,North,-999,-999.0,-999.0,-999,0.00,,,0.00,weatherlink.com 1.10,2013-08-18 12:13:00,
2013-08-18 08:28:00,-999.0,-99.9,30.24,North,-999,-999.0,-999.0,-999,0.00,,,0.00,weatherlink.com 1.10,2013-08-18 12:28:00,
2013-08-18 08:43:00,-999.0,-99.9,30.24,North,-999,-999.0,-999.0,-999,0.00,,,0.00,weatherlink.com 1.10,2013-08-18 12:43:00,
2013-08-18 08:58:00,67.3,64.0,30.24,ESE,105,0.0,2.0,89,0.00,,,0.00,weatherlink.com 1.10,2013-08-18 12:58:00,
2013-08-18 09:13:00,68.6,64.0,30.23,East,99,2.0,3.0,85,0.00,,,0.00,weatherlink.com 1.10,2013-08-18 13:13:00,
2013-08-18 09:28:00,67.9,64.0,30.24,East,86,2.0,2.0,87,0.00,,,0.00,weatherlink.com 1.10,2013-08-18 13:28:00,
2013-08-18 09:43:00,68.7,64.0,30.23,ENE,78,1.0,1.0,86,0.00,,,0.00,weatherlink.com 1.10,2013-08-18 13:43:00,
2013-08-18 09:58:00,68.5,64.0,30.24,ENE,77,1.0,2.0,85,0.00,,,0.00,weatherlink.com 1.10,2013-08-18 13:58:00,
2013-08-18 10:13:00,68.3,64.0,30.23,East,79,2.0,3.0,85,0.00,,,0.00,weatherlink.com 1.10,2013-08-18 14:13:00,
2013-08-18 10:28:00,70.0,65.0,30.24,East,100,1.0,3.0,84,0.00,,,0.00,weatherlink.com 1.10,2013-08-18 14:28:00,
2013-08-18 10:43:00,71.7,66.0,30.24,East,99,0.0,3.0,81,0.00,,,0.00,weatherlink.com 1.10,2013-08-18 14:43:00,
2013-08-18 10:58:00,72.5,66.0,30.23,East,88,3.0,4.0,79,0.00,,,0.00,weatherlink.com 1.10,2013-08-18 14:58:00,
2013-08-18 11:13:00,70.9,66.0,30.23,East,90,3.0,4.0,83,0.00,,,0.00,weatherlink.com 1.10,2013-08-18 15:13:00,
2013-08-18 11:28:00,70.4,66.0,30.24,ENE,76,2.0,3.0,87,0.00,,,0.00,weatherlink.com 1.10,2013-08-18 15:28:00,
2013-08-18 11:43:00,70.6,67.0,30.23,East,85,2.0,3.0,88,0.00,,,0.00,weatherlink.com 1.10,2013-08-18 15:43:00,
2013-08-18 11:58:00,70.2,67.0,30.22,East,85,3.0,3.0,88,0.00,,,0.00,weatherlink.com 1.10,2013-08-18 15:58:00,
2013-08-18 12:13:00,69.9,67.0,30.22,East,84,2.0,3.0,90,0.00,,,0.00,weatherlink.com 1.10,2013-08-18 16:13:00,
2013-08-18 12:28:00,70.1,67.0,30.21,East,81,1.0,3.0,89,0.00,,,0.00,weatherlink.com 1.10,2013-08-18 16:28:00,
2013-08-18 12:43:00,70.1,67.0,30.21,East,83,2.0,4.0,89,0.00,,,0.00,weatherlink.com 1.10,2013-08-18 16:43:00,
2013-08-18 12:58:00,70.5,67.0,30.21,East,85,3.0,3.0,87,0.00,,,0.00,weatherlink.com 1.10,2013-08-18 16:58:00,
2013-08-18 13:13:00,70.4,67.0,30.21,East,98,2.0,3.0,88,0.00,,,0.00,weatherlink.com 1.10,2013-08-18 17:13:00,
2013-08-18 13:29:00,71.4,67.0,30.20,ESE,105,1.0,2.0,86,0.00,,,0.00,weatherlink.com 1.10,2013-08-18 17:29:00,
2013-08-18 13:44:00,71.1,66.0,30.20,East,86,2.0,3.0,85,0.00,,,0.00,weatherlink.com 1.10,2013-08-18 17:44:00,
2013-08-18 13:59:00,70.9,67.0,30.20,East,85,2.0,3.0,86,0.00,,,0.00,weatherlink.com 1.10,2013-08-18 17:59:00,
2013-08-18 14:14:00,70.8,67.0,30.19,East,86,2.0,4.0,87,0.00,,,0.00,weatherlink.com 1.10,2013-08-18 18:14:00,
2013-08-18 14:29:00,70.4,66.0,30.18,ESE,104,1.0,5.0,87,0.00,,,0.00,weatherlink.com 1.10,2013-08-18 18:29:00,
2013-08-18 14:44:00,70.7,67.0,30.17,East,84,3.0,4.0,87,0.00,,,0.00,weatherlink.com 1.10,2013-08-18 18:44:00,
2013-08-18 14:59:00,70.1,67.0,30.17,East,89,2.0,4.0,88,0.00,,,0.00,weatherlink.com 1.10,2013-08-18 18:59:00,
2013-08-18 15:14:00,70.0,66.0,30.16,East,86,2.0,4.0,88,0.00,,,0.00,weatherlink.com 1.10,2013-08-18 19:14:00,
2013-08-18 15:29:00,69.9,67.0,30.16,East,85,1.0,3.0,89,0.00,,,0.00,weatherlink.com 1.10,2013-08-18 19:29:00,
2013-08-18 15:44:00,70.0,67.0,30.15,East,93,3.0,3.0,89,0.00,,,0.00,weatherlink.com 1.10,2013-08-18 19:44:00,
2013-08-18 15:59:00,69.9,67.0,30.14,East,89,3.0,4.0,90,0.00,,,0.00,weatherlink.com 1.10,2013-08-18 19:59:00,
2013-08-18 16:14:00,69.6,67.0,30.14,East,89,2.0,4.0,90,0.00,,,0.00,weatherlink.com 1.10,2013-08-18 20:14:00,
2013-08-18 16:29:00,69.4,66.0,30.14,East,84,2.0,4.0,90,0.00,,,0.00,weatherlink.com 1.10,2013-08-18 20:29:00,
2013-08-18 16:44:00,69.2,66.0,30.14,East,86,2.0,3.0,90,0.00,,,0.00,weatherlink.com 1.10,2013-08-18 20:44:00,
2013-08-18 16:59:00,69.0,66.0,30.14,East,89,2.0,3.0,90,0.00,,,0.00,weatherlink.com 1.10,2013-08-18 20:59:00,
2013-08-18 17:14:00,68.7,66.0,30.14,East,82,3.0,4.0,90,0.00,,,0.00,weatherlink.com 1.10,2013-08-18 21:14:00,
2013-08-18 17:29:00,68.4,66.0,30.14,ENE,73,1.0,3.0,91,0.00,,,0.00,weatherlink.com 1.10,2013-08-18 21:29:00,
2013-08-18 17:44:00,68.3,66.0,30.13,ENE,78,0.0,3.0,91,0.00,,,0.00,weatherlink.com 1.10,2013-08-18 21:44:00,
2013-08-18 17:59:00,68.1,65.0,30.12,East,83,1.0,1.0,91,0.00,,,0.00,weatherlink.com 1.10,2013-08-18 21:59:00,
2013-08-18 18:14:00,67.9,65.0,30.11,East,79,1.0,3.0,90,0.00,,,0.00,weatherlink.com 1.10,2013-08-18 22:14:00,
2013-08-18 18:29:00,67.6,64.0,30.11,East,80,4.0,4.0,89,0.00,,,0.00,weatherlink.com 1.10,2013-08-18 22:29:00,
2013-08-18 18:44:00,67.8,64.0,30.11,East,79,1.0,3.0,86,0.00,,,0.00,weatherlink.com 1.10,2013-08-18 22:44:00,
2013-08-18 18:59:00,67.6,63.0,30.10,East,86,0.0,2.0,84,0.00,,,0.00,weatherlink.com 1.10,2013-08-18 22:59:00,
2013-08-18 19:14:00,67.3,62.0,30.12,NE,51,0.0,1.0,84,0.00,,,0.00,weatherlink.com 1.10,2013-08-18 23:14:00,
2013-08-18 19:29:00,66.5,63.0,30.11,ENE,72,0.0,1.0,87,0.00,,,0.00,weatherlink.com 1.10,2013-08-18 23:29:00,
2013-08-18 19:44:00,66.4,63.0,30.10,East,81,3.0,5.0,87,0.01,,,0.01,weatherlink.com 1.10,2013-08-18 23:44:00,
2013-08-18 19:59:00,66.7,62.0,30.09,East,89,5.0,7.0,85,0.01,,,0.01,weatherlink.com 1.10,2013-08-18 23:59:00,
2013-08-18 20:14:00,66.8,62.0,30.10,East,89,4.0,5.0,85,0.01,,,0.01,weatherlink.com 1.10,2013-08-19 00:14:00,
2013-08-18 20:29:00,66.0,62.0,30.11,East,80,0.0,4.0,86,0.00,,,0.01,weatherlink.com 1.10,2013-08-19 00:29:00,
2013-08-18 20:44:00,65.0,61.0,30.12,East,81,0.0,1.0,88,0.00,,,0.01,weatherlink.com 1.10,2013-08-19 00:44:00,
2013-08-18 20:59:00,65.0,62.0,30.12,East,96,0.0,2.0,89,0.00,,,0.01,weatherlink.com 1.10,2013-08-19 00:59:00,
2013-08-18 21:15:00,65.0,62.0,30.11,East,89,0.0,1.0,89,0.00,,,0.01,weatherlink.com 1.10,2013-08-19 01:15:00,
2013-08-18 21:29:00,65.0,62.0,30.11,East,83,0.0,2.0,89,0.00,,,0.01,weatherlink.com 1.10,2013-08-19 01:29:00,
2013-08-18 21:44:00,64.1,61.0,30.11,East,83,0.0,1.0,90,0.00,,,0.01,weatherlink.com 1.10,2013-08-19 01:44:00,
2013-08-18 21:59:00,64.8,62.0,30.10,East,85,2.0,3.0,89,0.00,,,0.01,weatherlink.com 1.10,2013-08-19 01:59:00,
2013-08-18 22:14:00,66.1,61.0,30.09,East,84,2.0,4.0,84,0.00,,,0.01,weatherlink.com 1.10,2013-08-19 02:14:00,
2013-08-18 22:29:00,65.9,61.0,30.09,East,83,2.0,2.0,85,0.00,,,0.01,weatherlink.com 1.10,2013-08-19 02:29:00,
2013-08-18 22:44:00,65.7,61.0,30.08,East,81,1.0,3.0,84,0.00,,,0.01,weatherlink.com 1.10,2013-08-19 02:44:00,
2013-08-18 22:59:00,65.2,61.0,30.09,ENE,72,0.0,1.0,86,0.00,,,0.01,weatherlink.com 1.10,2013-08-19 02:59:00,
2013-08-18 23:14:00,63.9,60.0,30.09,ENE,72,0.0,0.0,88,0.00,,,0.01,weatherlink.com 1.10,2013-08-19 03:14:00,
2013-08-18 23:29:00,63.3,60.0,30.08,ENE,72,0.0,0.0,89,0.00,,,0.01,weatherlink.com 1.10,2013-08-19 03:29:00,
2013-08-18 23:44:00,63.3,60.0,30.09,ENE,72,0.0,0.0,90,0.00,,,0.01,weatherlink.com 1.10,2013-08-19 03:44:00,
2013-08-18 23:59:00,63.1,60.0,30.08,ENE,72,0.0,0.0,90,0.00,,,0.01,weatherlink.com 1.10,2013-08-19 03:59:00,